Retour au catalogue

OBJECT A

ActifSSO
NORAD 100129·UNKNOWN·🇨🇳 China

Lancé Jul 22, 2026 depuis Yellow Sea Launch Area

Loading…

Prochains Passages (prochaines 24 heures)

TLE

FraisSource: Space-Track

Époque: Sep 14, 2026, 04:38 UTC

1 A0129U 26168A   26257.19372103  .00004121  00000-0  25946-3 0  9990
2 A0129  97.5352 337.9953 0019423 143.7557 216.4993 15.09576333  8166

Suivez OBJECT A en temps réel avec AllMySat

Download on the App Store